Location: Bergfeld
(52.0500°N, 11.7833°E)
Time: 15:55:45
(UTC+00:00)

Cosmos 1315 Rocket - Pass Details

Date: 17 February 2020
Orbit: 530 x 568 km, 81.2° (Epoch: 07 April)

Event Time Altitude Azimuth Distance (km) Brightness Sun altitude
Rises 05:42:15 0° 175° (S) 2,691 6.6 -7.2°
Reaches altitude 10° 05:44:28 10° 168° (SSE) 1,798 5.8 -6.9°
Maximum altitude 05:48:14 44° 96° (E) 750 4.2 -6.3°
Drops below altitude 10° 05:52:00 10° 24° (NNE) 1,798 5.6 -5.8°
Sets 05:54:13 0° 18° (NNE) 2,691 6.4 -5.4°
